Location: Marquette
(46.5440°N, 87.3950°W)
Time: 16:11:06
(UTC-05:00)

Daily predictions for brighter satellites

Satellite Brightness Start Highest point End
(mag) Time Altitude Azimuth Time Altitude Azimuth Time Altitude Azimuth
SL-8 Rocket 4.0 17:26:42 10° N 17:32:52 72° E 17:39:01 10° SSE
Meteor 1-5 Rocket 4.3 17:28:22 10° NNW 17:33:52 84° W 17:39:29 10° S
IDEFIX/ARIANE 42P 3.0 17:29:11 10° SE 17:33:59 40° ENE 17:38:47 10° N
Thor Agena Rocket 4.4 17:30:40 10° NE 17:35:18 31° E 17:39:57 10° SSE
Cosmos 1743 4.3 17:35:44 10° NNE 17:38:03 15° ENE 17:40:21 10° ESE
Cosmos 1500 4.1 17:34:50 10° NNE 17:38:10 27° ENE 17:41:29 10° SE
Cosmos 2251 Rocket 3.7 17:32:57 10° NNW 17:38:20 85° WSW 17:43:39 10° SSE
Tiangong 1 3.0 17:36:33 10° SSW 17:38:54 21° SSE 17:41:15 10° ESE
Cosmos 375 4.4 17:34:30 10° NW 17:39:16 81° NE 17:43:11 10° SE
Cosmos 2263 Rocket 4.1 17:39:12 10° W 17:43:36 23° NW 17:48:03 10° N
Cosmos 1959 Rocket 4.5 17:39:31 10° N 17:45:44 76° E 17:52:00 10° SSE
Cosmos 2366 rocket 4.0 17:40:05 10° N 17:46:26 68° ENE 17:52:42 10° SSE
OPS 8737 4.2 17:46:51 10° SW 17:50:04 86° SE 17:53:19 10° NE
AQUARIUS 4.3 17:47:26 10° SSE 17:51:48 52° ENE 17:56:11 10° N
CSL-04 Rocket 4.4 17:46:32 10° S 17:51:57 60° WSW 17:57:27 10° NNW
Cosmos 1484 Rocket 3.9 17:53:02 10° ESE 17:55:54 21° ENE 17:58:47 10° NNE
Cosmos 2218 Rocket 4.0 17:50:31 10° N 17:56:51 90° ESE 18:03:03 10° S
Cosmos 1975 2.9 17:54:07 10° N 17:58:09 57° ENE 18:02:07 10° SSE
USA 234 3.7 17:53:21 10° ENE 17:59:42 50° SE 18:06:00 10° SSW
Cosmos 1238 Rocket 2.1 17:57:01 10° S 18:00:00 74° E 18:03:17 10° NNE
PAYLOAD A 4.0 17:55:19 10° SSE 18:00:13 85° WSW 18:05:20 10° NNW
Cosmos 1544 Rocket 4.2 18:01:36 10° NNW 18:06:02 62° W 18:10:25 10° S
Cosmos 1844 Rocket 3.4 18:01:05 10° SW 18:06:32 52° WNW 18:12:04 10° NNE
CRYOSAT 2 4.4 18:03:04 10° N 18:08:00 90° E 18:12:53 10° S
CZ-4 R/B 1.5 18:04:04 10° SSE 18:08:13 84° WSW 18:12:22 10° NNW
Meteor 1-12 Rocket 4.4 18:04:20 10° NNW 18:10:11 87° W 18:16:06 10° S
MSX 3.9 18:05:48 10° SSE 18:11:26 59° ENE 18:17:05 10° N
Abrixas 3.4 18:08:40 10° W 18:11:33 47° SSW 18:14:25 10° SE
MOS 1 4.3 18:05:54 10° SSE 18:11:34 87° ENE 18:17:16 10° NNW
NOSS 3-4 (A) 4.0 18:05:04 10° NW 18:11:45 50° NE 18:18:50 10° ESE
NOSS 3-4 (C) 4.0 18:05:10 10° NW 18:11:51 50° NE 18:18:56 10° ESE
COSMO-SKYMED 1 3.7 18:09:49 13° NE 18:12:45 24° E 18:16:18 10° SSE
CORIOLIS 4.1 18:10:09 10° SSE 18:15:33 80° ENE 18:20:58 10° NNW
CZ-2C R/B 2.5 18:11:26 10° SSE 18:16:30 89° WSW 18:21:42 10° NNW
Cosmos 1812 3.0 18:13:50 10° SSW 18:17:40 72° W 18:21:33 10° N
CZ-3B DEB 2.3 18:14:04 10° SW 18:17:54 90° SE 18:25:57 15° ENE
Cosmos 407 Rocket 4.4 18:14:13 10° N 18:18:26 25° NE 18:21:59 13° ESE
COSMOS 2441 4.4 18:15:02 10° SSE 18:19:47 56° ENE 18:24:36 10° N
Cosmos 1821 Rocket 4.3 18:14:08 10° N 18:19:52 40° ENE 18:25:32 10° SE
NOSS 3-3 (A) 4.1 18:14:32 10° SW 18:20:47 88° SE 18:26:56 13° NE
NOSS 3-3 (C) 4.1 18:14:38 10° SW 18:20:53 88° SE 18:27:01 13° NE
Timation 2 Rocket 4.2 18:14:49 10° NNW 18:21:41 84° ENE 18:28:36 10° SSE
ERBS 3.9 18:23:12 10° NNW 18:25:49 20° NNE 18:26:19 19° NNE
Cosmos 921 Rocket 3.4 18:22:04 10° S 18:26:07 43° ESE 18:28:57 18° NE
Cosmos 1025 Rocket 4.0 18:23:02 10° SE 18:26:42 27° E 18:28:12 22° ENE
Cosmos 1536 Rocket 3.9 18:26:02 10° SSW 18:30:29 70° W 18:34:59 10° N
Meteor 2-21 Rocket 4.4 18:33:22 10° N 18:39:36 80° E 18:45:45 10° SSE
YAOGAN 1 3.3 18:35:28 10° S 18:39:42 56° W 18:44:00 10° NNW
Meteor 2-16 Rocket 4.3 18:34:32 10° N 18:40:37 67° ENE 18:46:40 10° SSE
Cosmos 1371 Rocket 4.5 18:35:43 10° S 18:40:42 41° ESE 18:43:24 24° NE
Cosmos 2297 3.6 18:35:17 10° SSW 18:40:53 73° ESE 18:45:18 17° NNE
COSMOS 2487 4.0 18:38:26 10° NW 18:41:49 39° WSW 18:45:11 10° S
SPOT 3 Rocket 4.5 18:39:07 10° S 18:44:09 51° W 18:49:13 10° NNW
Okean 1 4.3 18:43:04 10° SSW 18:47:00 48° WNW 18:50:58 10° N
Nadezhda 3 Rocket 3.9 18:43:32 10° S 18:49:45 83° E 18:56:05 10° N
SL-8 R/B 3.6 18:45:15 10° W 18:50:02 81° NNW 18:52:00 36° ENE
Cosmos 2278 Rocket 2.9 18:45:01 10° SW 18:50:31 51° WNW 18:55:53 11° NNE
METEOR-M 4.4 18:45:37 10° SE 18:50:34 41° ENE 18:55:35 10° N
Cosmos 1666 2.8 18:48:50 10° N 18:52:37 51° ENE 18:56:24 10° SSE
Cosmos 1346 Rocket 3.3 18:48:54 10° SSW 18:52:44 58° WNW 18:56:27 11° N
BREEZE-M R/B 4.0 18:44:16 10° WSW 18:54:40 89° SSE 18:57:05 34° ENE
GRACE-2 3.9 18:53:09 10° S 18:55:56 75° W 18:56:15 63° NNW
GRACE-1 4.0 18:53:34 10° S 18:56:20 73° W 18:56:45 59° NNW
ISS -2.1 18:57:54 10° WNW 19:00:43 32° N 19:00:43 32° N
SKYMED 2 3.4 18:58:26 24° NNE 19:01:02 76° ESE 19:05:22 10° S
GEOS 3 Rocket 3.6 19:00:06 30° ESE 19:02:34 60° NE 19:07:37 10° NNW
Cosmos 1833 Rocket 3.2 19:00:30 10° NNW 19:06:04 60° WSW 19:11:34 10° S
Timation 1 Rocket 4.3 19:03:14 10° SSW 19:09:11 86° WNW 19:12:51 25° NNE
Cosmos 1190 Rocket 3.9 19:04:21 10° NNW 19:09:37 71° ENE 19:14:48 10° SSE
Intercosmos 25 4.0 19:07:12 10° NNW 19:10:17 44° W 19:13:29 10° SSW
OE (NEXTSAT) 4.3 19:06:49 10° W 19:10:22 79° S 19:10:22 79° S
Cosmos 1727 Rocket 4.4 19:05:47 10° SSE 19:10:52 37° E 19:10:52 37° E
NOSS 2-1 (D) 3.3 19:08:42 10° SW 19:12:35 88° NW 19:13:17 61° NE
Cosmos 2082 Rocket 3.3 19:07:50 10° NW 19:13:14 45° WSW 19:18:36 10° S
NOSS 2-1 (C) 3.3 19:09:22 10° SW 19:13:16 89° NW 19:13:57 62° NE
Cosmos 1743 3.8 19:10:27 10° NNW 19:14:11 46° W 19:17:52 10° SSW
Tiangong 1 2.4 19:11:50 10° WSW 19:14:01 33° SSW 19:14:01 33° SSW
BREEZE-M DEB (TANK) 3.4 19:11:51 10° WNW 19:17:36 62° N 19:17:36 62° N
FALCON 9 R/B 4.2 18:57:24 10° WSW 19:19:56 44° S 19:24:36 23° SE
Meteor 1-28 Rocket 3.9 19:21:17 44° S 19:21:17 44° S 19:23:58 10° S
Okean 1-7 Rocket 4.2 19:16:55 10° SSW 19:21:21 55° WNW 19:24:49 16° N
Cosmos 1726 Rocket 3.4 19:19:02 10° N 19:23:31 82° E 19:27:59 10° S
FengYun 1-2 T 4.4 19:26:24 51° NE 19:26:24 51° NE 19:31:22 10° N
Okean 2 4.5 19:27:40 10° S 19:30:08 35° S 19:30:08 35° S
NOSS 2-1 (E) 3.6 19:28:03 10° SW 19:32:00 67° NW 19:32:06 67° NW
Cosmos 1934 Rocket 4.1 19:26:18 10° NNW 19:32:30 76° W 19:38:47 10° S
Meteor 2-8 Rocket 4.3 19:32:38 10° S 19:38:43 89° W 19:43:05 21° N
Meteor 1-15 Rocket 4.4 19:36:41 10° NNW 19:42:36 73° W 19:48:22 10° S
Cosmos 1606 Rocket 4.3 19:38:15 10° NNW 19:42:37 53° W 19:46:58 10° S
USA 234 3.5 19:40:41 42° NNE 19:42:50 63° NNW 19:49:16 10° WSW
COSMO-SKYMED 1 4.0 19:47:02 24° NNW 19:49:00 36° WNW 19:52:56 10° SW
Cosmos 2369 Rocket 3.9 19:49:04 10° S 19:50:46 20° S 19:50:46 20° S
Meteor 2-4 Rocket 4.4 19:53:22 10° SSW 19:58:31 48° WNW 20:01:14 26° NNW
Cosmos 407 Rocket 4.2 19:55:45 10° NNW 20:00:44 52° WSW 20:02:22 37° SSW
Cosmos 2056 Rocket 4.1 19:58:42 10° SW 20:03:57 55° WNW 20:04:14 54° NW
BREEZE-M DEB (TANK) 3.7 19:59:35 10° WNW 20:03:27 48° NW 20:03:27 48° NW
BREEZE M DEB (TANK) 4.3 20:10:32 10° WNW 20:15:01 58° SSW 20:18:05 41° SSE
CZ-3B DEB 4.0 20:46:54 10° WNW 20:53:42 54° N 20:53:53 54° N
